RH
50 49 44 34 28 31 33 34 36 32 30 27 19 16 20 23 23 24 24 25 27 34 44 51 55 55 52 47 40 35 34 34 34 35 35 34 34 29 26 26 26 27 31 37 37 34 33 33 36 41 41 35 30 31 30 30 35 44 52 56 51 44 45 45 45 48 46 42 41 43 47 49 51 54 55 55 56 56 57 55 54 53 52 48 43 37 34 36
49 46 41 35 32 33 35 36 34 31 29 25 19 18 19 19 20 22 22 21 20 21 27 35 40 41 43 42 36 33 35 37 36 35 32 32 32 30 30 30 31 36 42 43 43 44 43 42 42 37 29 23 19 18 19 22 26 31 36 37 30 27 29 32 37 42 45 44 42 43 47 51 54 56 57 55 55 55 53 52 53 52 50 44 36 31 28 29
38 37 36 34 35 35 35 34 32 28 27 24 21 21 21 18 17 17 16 16 15 15 16 19 24 29 34 39 37 33 35 38 38 36 33 33 33 33 35 37 40 43 42 40 39 38 38 37 35 26 17 14 14 14 15 16 19 22 24 22 19 22 25 30 39 47 52 49 42 41 44 48 52 54 54 53 53 53 51 50 49 46 43 37 30 27 25 22
35 34 32 33 36 37 36 34 31 27 24 24 25 25 25 23 20 19 16 14 13 11 11 11 13 17 20 25 30 31 34 36 36 35 34 35 37 37 37 37 37 36 32 27 24 24 24 24 22 18 16 16 14 13 14 14 16 19 21 21 22 28 32 36 48 56 55 47 39 36 37 38 40 41 41 40 39 38 37 37 33 30 29 26 24 22 21 20
28 23 20 21 27 30 30 28 24 22 22 23 24 24 25 25 25 22 19 16 14 12 11 10 10 11 12 13 15 18 23 25 24 24 24 27 31 33 33 30 27 24 22 19 18 19 19 20 19 18 18 16 15 14 14 14 16 19 19 23 27 32 34 35 45 52 47 41 37 36 37 37 36 35 34 33 26 20 20 20 18 18 19 19 18 18 17 17
15 10 11 14 19 21 21 21 21 22 24 24 24 23 21 21 22 21 19 17 15 14 13 12 11 11 11 10 10 10 13 15 18 21 21 21 23 25 24 23 21 19 18 17 17 17 17 17 17 17 17 16 15 14 14 14 17 20 20 24 29 33 34 34 40 45 42 39 37 38 39 38 37 34 33 30 21 14 15 15 14 15 15 15 16 16 15 15
10 13 19 22 24 25 26 27 27 28 29 30 30 28 25 23 22 20 20 18 16 16 15 13 12 11 11 11 11 11 11 12 14 15 16 17 17 18 18 17 16 15 14 14 14 15 15 15 14 15 14 14 14 14 14 14 17 20 19 20 25 29 30 31 34 37 36 37 38 39 39 35 34 32 27 22 15 13 14 13 13 13 13 14 13 13 14 14
14 22 26 29 31 33 35 35 34 35 35 36 37 34 32 30 27 24 22 20 18 18 17 13 11 11 11 12 12 12 12 11 12 13 14 15 15 15 15 14 13 12 12 11 12 12 13 13 14 14 13 14 14 13 14 15 17 19 18 19 22 23 25 26 28 30 32 35 37 36 31 27 28 27 19 12 9 10 12 12 13 13 13 13 12 13 13 13
21 27 29 33 35 35 32 29 26 24 24 28 33 36 37 35 33 30 26 23 20 19 16 12 10 11 11 12 12 12 12 13 14 15 16 16 16 15 12 11 10 9 8 8 8 9 10 12 12 13 13 14 14 14 14 15 16 18 19 20 21 22 24 25 26 28 28 29 30 27 22 19 21 21 13 6 7 9 11 13 13 13 13 12 13 13 14 14
26 30 32 32 29 25 20 17 16 15 13 13 18 26 32 35 35 32 28 24 21 18 14 10 10 11 11 12 12 12 14 15 15 15 14 13 12 10 9 9 8 7 7 7 7 7 7 8 9 10 12 12 13 13 14 15 15 16 18 19 19 21 22 23 23 23 23 22 21 19 16 15 17 16 8 4 8 11 12 13 14 14 13 13 14 15 16 16
31 31 28 24 20 18 17 18 20 19 16 11 9 12 17 24 27 27 25 21 17 14 11 10 11 12 12 12 12 13 14 14 14 13 11 11 10 9 9 8 8 8 8 7 7 8 8 8 8 9 10 11 11 12 13 14 14 15 16 17 17 18 18 18 18 18 17 17 16 16 14 12 14 11 6 8 13 14 14 15 17 17 17 17 18 17 17 17
31 26 21 19 19 21 22 21 21 17 14 11 9 8 8 11 14 16 15 13 12 10 10 11 12 13 12 12 12 13 14 14 13 12 10 10 9 9 8 8 8 8 8 8 8 8 9 9 9 10 11 11 11 13 14 14 15 16 16 16 15 14 15 14 14 14 14 16 16 17 14 9 9 8 6 11 15 14 15 17 19 20 20 20 19 17 16 15
24 19 21 23 25 24 20 17 15 13 11 9 8 8 8 8 9 10 10 10 10 11 12 12 12 12 12 12 13 13 13 13 12 11 10 9 9 8 8 7 7 7 7 7 7 8 9 9 10 10 10 11 12 12 13 13 13 14 14 14 12 11 11 10 12 13 13 16 16 19 18 7 4 5 5 9 11 11 12 13 15 17 18 18 16 14 12 11
17 22 26 26 23 18 14 12 12 11 10 9 9 8 9 9 10 10 10 11 11 11 11 11 12 11 12 13 13 14 14 13 12 11 9 7 7 6 6 6 6 6 6 6 6 7 7 8 8 8 9 10 10 11 12 12 12 12 13 12 12 12 11 9 11 12 13 16 14 19 19 6 2 3 3 6 5 6 6 6 8 8 9 10 8 7 6 6
23 28 26 22 18 14 12 12 12 12 12 11 11 10 11 11 11 11 11 11 11 11 11 11 12 12 13 13 13 15 15 13 12 10 8 6 5 5 5 5 5 5 5 6 6 6 6 7 7 7 8 8 10 11 11 12 12 12 13 12 12 13 11 8 10 11 12 14 13 15 15 4 2 3 2 3 3 3 4 3 3 3 3 3 3 3 2 2
29 26 22 20 18 16 15 14 13 12 12 12 12 11 12 12 12 12 11 11 11 11 12 13 14 13 13 12 13 16 16 14 11 9 6 5 5 5 5 5 5 5 5 6 6 6 6 7 8 8 9 10 11 12 13 14 12 12 14 13 12 12 11 8 8 9 10 12 10 11 10 3 2 4 3 4 4 4 4 4 4 4 4 3 2 2 1 1
26 22 22 22 22 21 20 19 18 16 15 14 14 13 13 13 13 12 12 12 11 10 11 12 13 13 12 11 13 16 15 12 10 8 6 5 5 5 5 5 5 5 4 5 6 6 7 8 9 10 11 12 13 15 18 15 11 11 12 12 11 11 11 8 5 6 8 8 6 7 6 4 4 6 6 6 6 6 6 6 6 5 5 5 4 3 2 2
26 25 26 27 27 28 26 24 22 21 21 20 19 18 17 17 15 16 15 13 10 10 10 11 12 12 11 11 13 14 12 10 9 7 6 5 5 4 5 5 4 4 4 5 6 6 8 8 9 10 10 11 14 17 19 14 9 10 11 12 11 9 7 6 5 7 8 6 4 5 4 5 6 7 8 8 8 7 7 7 6 6 6 6 6 5 4 4
30 30 32 32 33 33 32 32 30 28 28 27 26 24 21 20 19 18 16 13 11 10 10 10 10 9 9 10 11 11 10 8 7 6 5 4 4 4 4 4 4 4 5 5 6 7 7 8 8 9 8 11 14 15 13 10 9 10 12 13 12 8 4 4 6 7 6 5 4 4 5 6 7 7 8 8 8 7 7 7 7 7 7 7 7 6 5 5
32 33 33 33 34 34 34 34 33 34 34 33 32 29 25 24 22 19 17 15 12 10 9 8 7 7 7 8 9 10 8 7 6 5 4 4 4 5 4 5 4 4 5 5 5 5 6 7 7 6 7 9 11 9 7 8 8 9 11 12 11 10 5 4 7 6 4 5 5 6 6 7 8 8 8 8 8 7 7 8 8 8 8 7 6 6 6 6
32 33 32 33 33 33 33 33 33 34 35 35 35 33 31 30 26 22 20 17 14 11 9 8 7 6 7 8 9 8 7 7 6 4 4 4 5 5 5 5 4 4 4 4 4 5 6 7 5 5 6 6 6 6 6 6 6 7 9 9 8 8 7 5 6 5 5 6 7 6 7 8 9 8 8 8 8 8 8 9 9 8 8 7 7 7 7 7
32 32 33 34 33 32 32 31 32 33 34 35 34 35 35 33 29 27 24 18 14 11 9 8 7 7 7 8 9 8 7 6 4 4 5 5 5 4 5 4 4 4 4 4 4 5 6 5 5 5 5 5 6 6 5 5 5 4 6 7 6 6 6 6 5 6 6 7 7 6 6 9 10 8 9 9 9 9 9 9 10 9 8 8 8 9 8 8
33 33 35 34 33 32 31 30 30 30 32 33 33 34 34 32 32 31 27 19 13 10 8 7 7 7 8 9 10 8 6 5 4 5 5 6 5 4 5 4 4 5 4 5 5 5 5 5 5 5 6 6 6 5 5 5 4 4 4 5 5 5 5 5 6 7 6 6 6 5 7 9 10 9 9 9 9 9 9 10 10 10 9 9 9 9 10 9
33 35 35 34 33 31 29 28 27 27 28 29 30 31 31 31 32 31 27 19 11 8 7 8 9 10 10 10 9 7 6 4 4 5 5 6 5 5 5 4 5 5 5 6 5 5 6 6 6 6 6 6 5 6 5 4 5 5 4 4 5 5 6 7 7 7 6 5 6 8 11 10 9 10 9 8 10 9 9 11 11 11 9 10 10 10 10 9
33 36 35 36 34 31 31 27 25 25 25 25 26 27 28 29 31 30 24 15 9 8 10 13 13 13 12 10 8 6 4 4 4 6 5 5 6 6 5 5 5 6 6 6 6 6 6 7 7 7 7 6 6 6 5 6 6 5 5 6 6 6 7 7 7 7 6 6 7 10 16 15 9 9 9 8 10 9 10 11 11 11 10 10 11 11 10 10
33 36 36 39 36 34 33 28 26 24 23 24 23 24 26 27 30 27 18 11 9 9 12 17 16 14 14 12 8 6 4 5 5 6 5 5 7 6 5 6 6 6 6 6 6 7 7 8 8 8 8 7 7 7 7 7 6 6 7 7 7 7 7 7 6 8 9 9 8 8 13 15 9 8 9 9 10 9 9 10 11 11 11 11 12 12 11 10
33 36 39 40 38 38 35 30 29 25 22 22 22 23 25 26 27 22 14 10 11 13 14 15 15 14 14 11 7 6 6 5 5 6 6 7 7 6 6 6 6 6 6 6 7 7 8 8 8 8 7 7 8 8 8 8 8 8 7 7 8 6 6 6 5 9 11 11 9 6 10 18 16 10 9 10 9 9 8 9 11 11 11 12 12 13 12 11
34 37 39 39 39 39 37 34 32 26 22 20 20 22 24 25 24 19 14 12 14 19 18 15 14 13 11 9 7 6 5 5 5 6 7 6 6 6 6 6 6 6 6 6 7 7 8 8 8 8 8 7 8 8 9 10 10 9 8 9 8 6 7 6 7 10 11 15 14 6 9 22 23 12 9 11 9 9 9 9 10 10 11 12 12 13 13 12
36 38 39 39 39 39 38 37 32 28 23 20 18 19 20 23 21 17 15 14 15 20 20 17 15 12 10 8 6 5 5 5 5 6 6 5 5 6 6 6 6 6 6 7 7 7 8 8 8 8 8 8 8 8 9 9 10 10 9 10 8 8 8 6 9 8 11 25 23 8 10 21 22 14 9 11 9 8 9 9 10 10 11 12 12 13 13 12
38 39 40 40 40 39 38 36 32 28 23 19 17 16 18 20 18 17 15 13 15 21 22 17 14 12 9 7 6 5 5 5 5 6 6 6 6 6 7 7 7 7 7 8 7 7 8 8 8 8 8 8 8 9 9 10 11 11 11 12 10 12 9 8 14 13 24 38 25 10 12 18 25 20 10 10 10 9 10 9 10 11 11 12 12 12 13 12
37 38 39 39 38 37 36 34 31 27 21 17 14 13 15 17 16 17 14 11 14 21 21 16 13 12 9 7 6 5 5 5 5 6 6 6 7 7 8 8 8 9 8 8 8 8 8 8 8 8 8 9 9 9 10 10 12 11 13 14 14 13 10 13 19 23 39 43 21 14 17 20 31 24 10 11 11 9 11 11 11 11 11 12 12 12 12 12
28 30 32 34 35 34 34 33 29 25 19 14 11 11 13 15 15 13 12 12 14 17 16 13 12 11 8 7 6 5 5 5 6 6 6 7 7 8 9 9 9 10 9 9 8 8 9 8 8 9 9 9 10 10 11 12 12 12 15 17 19 19 15 20 29 34 42 33 15 17 21 23 28 18 10 13 12 12 13 12 12 12 12 12 11 12 11 12
23 23 25 29 31 32 32 31 26 20 15 11 10 10 12 15 14 10 10 13 13 13 13 12 12 10 8 7 6 6 7 7 8 8 8 9 8 8 8 8 9 10 11 10 10 10 10 9 9 9 9 10 10 11 12 13 13 13 16 17 20 21 17 27 39 39 37 25 13 20 27 28 23 14 15 16 13 16 15 13 14 12 11 12 11 12 12 12
24 23 25 28 30 30 29 24 19 14 11 10 9 10 13 14 11 9 11 12 12 12 13 13 11 8 7 6 7 9 9 9 10 10 9 8 8 7 7 7 8 9 11 12 12 12 12 12 10 9 10 10 10 11 12 13 14 14 17 18 18 17 16 26 35 33 29 23 15 19 25 26 18 13 16 15 14 16 14 13 14 12 13 13 12 12 13 13
25 26 28 29 28 26 20 15 12 9 9 9 9 10 12 11 9 10 11 11 13 13 13 12 9 7 7 7 8 9 10 10 9 8 8 8 8 7 7 8 9 10 11 12 13 13 13 14 12 11 12 12 11 12 12 14 15 16 18 19 18 16 14 18 23 22 24 26 22 19 19 17 13 14 15 14 16 16 14 14 13 14 16 14 14 14 13 14
28 28 27 24 21 17 12 10 8 8 8 8 9 10 10 10 10 10 11 13 15 14 13 10 8 8 8 7 8 8 8 9 8 8 8 8 8 7 8 10 11 12 13 14 15 14 14 13 12 14 14 13 14 14 13 15 17 18 20 19 18 18 17 19 20 19 23 30 26 18 17 15 14 17 19 17 17 15 14 15 14 16 17 14 16 15 14 15
27 25 21 17 14 11 9 9 8 8 9 8 9 9 10 10 11 12 14 15 15 14 13 11 9 9 9 9 8 7 8 9 9 9 9 9 8 9 11 12 12 14 15 16 17 17 17 14 11 14 16 15 15 15 15 16 18 19 19 19 19 20 21 22 24 25 31 37 32 21 17 18 20 24 24 20 19 18 16 16 15 16 16 15 16 16 16 16
21 19 16 13 10 9 9 10 9 9 9 9 9 9 10 11 11 13 14 14 14 13 12 13 13 11 11 11 9 8 10 10 10 11 11 11 11 11 12 12 13 15 15 17 18 18 20 18 13 13 17 18 18 19 18 16 17 19 19 19 21 23 24 23 24 31 35 39 42 32 19 20 28 32 31 28 26 23 19 17 17 16 16 16 16 17 19 19
16 13 11 9 9 9 10 10 10 10 10 9 9 9 10 10 11 12 13 13 13 12 13 14 14 13 12 11 10 10 11 12 12 14 14 13 12 13 14 14 15 16 17 19 20 20 23 24 18 13 15 18 19 20 20 19 19 20 20 22 23 25 28 25 24 30 33 35 42 37 25 28 38 41 43 41 35 29 26 23 22 21 22 21 21 22 22 23
10 9 8 9 10 11 11 11 10 10 9 8 9 9 10 11 11 12 13 13 13 13 14 13 13 14 12 11 12 13 14 15 15 15 15 15 14 14 15 16 17 18 18 19 21 23 25 27 24 17 16 19 19 19 20 21 22 23 22 24 25 26 28 30 30 27 28 36 42 41 37 36 39 44 50 49 44 40 37 35 34 32 31 31 31 30 29 29
8 8 9 10 10 10 10 11 10 9 8 8 9 10 10 11 11 12 12 12 12 12 13 12 13 14 13 14 14 15 18 18 15 14 15 15 16 16 16 17 18 19 19 20 23 26 26 28 28 24 20 18 16 17 22 25 24 24 24 23 24 28 29 36 42 32 27 38 43 44 47 42 38 45 50 51 51 51 49 50 49 45 42 40 39 39 39 38
8 7 7 7 7 7 7 8 8 7 7 8 9 9 10 10 10 11 11 11 11 11 11 12 13 13 14 16 17 17 17 14 13 15 16 15 16 17 17 18 19 20 21 21 23 27 29 31 31 28 24 21 20 23 26 26 24 24 27 28 28 30 29 36 46 39 34 39 38 41 50 48 44 47 51 56 63 67 67 63 60 58 56 54 51 51 52 52
6 5 5 6 5 5 5 6 7 6 7 8 9 10 11 10 10 10 10 10 10 11 11 11 11 14 16 17 17 16 12 12 16 17 16 15 16 18 21 21 21 22 23 24 27 31 33 34 34 32 29 26 24 28 30 29 30 33 36 37 34 34 36 40 43 42 42 43 41 47 53 51 50 52 57 67 74 79 81 75 69 68 69 70 69 66 65 65
5 6 7 6 6 6 6 6 7 7 8 9 10 11 11 10 10 10 10 10 11 11 10 9 12 15 15 15 14 12 13 16 18 17 17 17 18 23 25 24 24 26 27 30 35 38 40 40 39 40 46 45 39 40 40 36 40 46 47 47 46 48 53 56 54 51 50 47 46 51 54 55 63 69 70 74 76 77 82 83 80 78 77 78 78 76 76 76
5 7 8 7 7 7 7 8 9 8 8 10 10 11 10 10 10 10 9 10 11 11 9 11 14 14 13 14 14 15 17 19 19 18 18 19 21 26 27 27 29 29 31 36 41 47 51 51 49 49 56 61 57 54 50 47 52 58 59 62 67 69 70 70 67 62 61 62 60 62 67 68 72 76 75 74 74 73 76 79 80 80 79 79 79 79 80 81
5 7 8 7 7 9 8 8 9 8 8 10 10 10 9 9 9 10 9 10 10 9 9 12 14 14 15 17 18 18 18 18 20 20 20 22 25 27 29 30 30 30 35 42 48 55 57 58 60 59 57 59 62 62 61 63 69 72 73 74 76 77 74 74 75 73 79 88 84 80 90 92 85 80 79 78 78 77 76 76 76 76 75 76 78 81 82 84
6 7 8 7 9 11 9 7 8 8 8 8 9 10 9 9 9 9 9 10 10 10 12 14 16 17 19 20 19 20 20 20 23 23 25 26 24 26 29 28 28 34 42 46 47 50 52 55 61 68 68 68 70 70 67 71 79 82 80 77 77 76 74 77 86 90 95 102 97 89 96 102 97 91 89 87 84 81 79 79 78 75 74 76 78 80 81 83
7 7 7 7 8 8 7 6 7 6 6 8 9 10 10 9 9 9 10 11 12 14 16 17 19 20 21 21 21 21 21 22 23 25 27 26 22 21 22 24 34 46 48 47 47 48 52 57 65 71 66 58 63 67 62 67 81 85 82 82 83 84 84 86 92 94 95 97 98 96 95 100 101 94 90 89 86 82 82 83 83 79 75 76 77 76 77 78
6 6 6 6 6 6 5 6 6 6 7 9 10 10 10 10 11 12 14 16 17 18 18 18 20 20 21 22 22 23 23 23 22 21 22 23 21 16 18 27 41 51 50 49 51 53 55 59 66 66 47 34 49 59 52 65 89 92 91 95 94 92 93 92 90 85 82 84 89 93 94 98 101 94 88 90 89 86 83 81 83 83 77 74 75 75 74 73
5 5 5 5 5 6 6 6 6 6 8 9 10 10 11 12 15 17 17 18 18 18 18 18 20 21 22 22 21 21 21 20 19 17 15 14 12 14 27 35 39 44 47 48 52 55 54 52 53 51 35 23 36 46 47 73 97 96 98 102 94 88 87 86 83 78 74 75 78 84 91 96 95 87 85 91 93 88 81 77 81 86 82 78 77 76 76 73
5 5 5 5 5 6 6 6 7 8 9 11 11 12 14 16 18 18 17 17 17 18 19 19 18 17 16 14 12 11 10 9 10 9 8 8 9 17 28 33 34 37 36 39 47 49 45 39 33 39 38 21 20 37 54 76 90 91 97 96 84 82 85 83 81 77 78 84 83 86 94 93 86 79 79 87 91 85 75 70 72 78 80 81 82 84 88 85
5 6 5 6 6 6 7 7 8 9 10 12 13 15 17 18 17 17 18 18 18 17 16 12 9 8 6 5 4 3 3 3 3 4 6 11 17 18 20 28 35 32 24 29 36 31 28 26 21 37 47 25 16 39 53 59 72 85 94 92 86 88 90 85 78 73 83 96 96 97 100 97 94 91 86 87 86 78 68 60 62 69 69 69 76 86 93 89
Wind_Speed
12 11 11 10 9 8 7 6 5 3 3 4 3 2 2 2 2 2 3 3 3 3 3 4 4 6 7 7 7 7 7 6 6 6 7 6 6 7 8 8 8 7 8 10 10 11 11 12 13 13 13 14 15 16 16 16 18 18 18 20 23 22 19 18 18 20 22 23 22 21 20 19 18 18 19 19 18 19 20 20 21 23 23 23 23 23 22 21
10 9 9 8 7 6 5 4 2 1 3 3 3 2 0 1 2 2 1 1 2 2 3 4 5 5 6 7 7 7 6 6 6 7 8 8 8 8 8 8 9 10 11 12 13 14 15 16 16 17 17 17 17 18 18 18 19 20 21 24 26 24 22 21 22 22 22 21 20 20 20 20 20 21 22 23 23 23 24 24 24 26 25 25 24 24 24 24
9 8 7 6 5 5 4 3 2 3 4 3 2 1 2 3 4 5 5 5 5 5 5 5 5 6 7 7 8 8 8 8 8 9 10 11 11 11 11 12 13 14 15 16 17 18 19 20 20 20 19 17 17 18 19 19 19 20 23 26 26 24 23 22 22 21 20 20 20 20 20 21 21 23 25 27 27 28 28 27 28 29 27 26 27 27 27 27
7 6 5 5 5 6 5 5 5 5 5 3 2 3 4 5 5 6 6 6 6 6 6 6 7 8 8 7 8 9 10 11 12 12 13 14 14 15 15 16 18 18 18 19 19 20 21 21 21 21 19 18 17 18 19 19 19 21 24 25 24 23 23 21 20 20 20 22 22 22 22 22 23 25 27 28 30 31 29 28 29 29 28 27 28 29 29 29
5 5 5 5 6 7 7 7 7 6 5 3 3 3 4 5 5 5 5 5 5 5 6 7 7 8 9 8 9 10 11 12 12 12 13 15 16 17 18 19 19 19 19 19 19 19 20 20 20 20 19 18 17 18 19 18 19 22 24 24 23 23 24 22 21 22 22 23 24 24 25 25 25 28 29 29 32 31 28 28 29 29 28 29 29 30 30 30
4 3 3 3 5 6 6 6 6 5 4 4 3 3 4 5 5 5 4 5 5 5 6 6 7 7 8 8 9 10 11 11 10 10 12 13 15 16 17 17 17 18 18 18 18 17 18 18 18 18 18 17 17 17 18 18 20 23 23 22 23 24 25 24 23 24 24 25 26 26 28 28 29 31 31 33 34 30 28 30 30 29 29 30 30 31 31 31
3 2 1 2 3 4 5 5 5 5 5 5 5 5 4 4 4 4 4 4 5 5 6 6 6 6 7 8 9 10 11 12 12 12 13 13 14 15 15 16 16 16 17 17 16 16 16 17 17 17 17 17 17 17 17 19 20 23 24 23 24 25 26 26 26 26 26 27 28 29 31 30 31 34 35 36 33 29 29 31 30 30 31 31 32 32 32 32
3 2 2 3 4 4 5 5 5 6 6 7 7 7 7 6 5 5 6 5 6 6 6 6 6 6 6 7 8 9 10 11 11 12 12 12 12 13 14 15 15 16 16 17 17 16 16 16 16 17 17 17 17 17 17 19 21 23 24 24 25 25 26 27 27 27 28 29 30 32 33 32 33 36 39 37 30 28 30 31 30 30 31 31 31 32 32 32
3 2 3 4 4 5 5 6 6 6 6 7 8 9 9 8 8 8 8 7 7 7 7 6 6 6 6 7 8 9 9 9 10 11 11 11 11 12 13 13 14 15 15 16 16 16 15 16 16 16 17 17 18 17 17 19 20 22 23 23 24 25 25 26 27 28 29 30 31 34 35 34 34 38 41 33 28 30 31 31 31 31 33 32 31 31 31 32
3 3 4 4 5 5 5 6 6 5 5 6 8 9 10 10 10 10 9 9 9 8 7 7 6 6 7 7 8 8 8 9 10 11 11 11 10 11 12 12 13 13 14 14 15 15 15 14 15 16 17 17 18 18 18 19 21 22 23 24 24 26 27 27 28 29 31 31 32 35 36 35 35 40 39 29 27 31 30 30 31 32 32 31 30 30 30 31
3 3 4 4 4 4 4 5 6 6 5 5 6 8 10 11 11 11 10 10 9 9 8 7 6 7 7 7 7 8 9 9 9 10 10 10 11 11 11 12 12 13 14 13 13 14 13 14 15 15 16 17 17 17 18 19 21 22 24 25 25 26 28 29 29 29 31 31 32 34 37 37 36 39 35 27 28 31 30 30 30 30 29 28 29 29 30 30
4 4 4 3 3 4 4 5 6 6 5 5 5 6 7 9 10 10 10 9 9 8 7 6 6 6 6 6 7 7 9 9 8 8 10 11 11 12 12 13 13 14 14 13 13 13 13 14 15 15 16 17 18 18 18 19 20 22 23 25 26 27 28 29 29 29 29 29 29 31 37 40 36 34 32 28 30 31 31 31 29 29 28 28 29 30 31 31
4 3 2 2 3 3 4 4 4 4 4 4 4 5 5 6 7 7 8 7 7 6 5 5 6 6 6 7 7 8 8 8 8 9 10 12 13 13 13 14 14 14 14 14 13 14 15 15 16 16 17 18 19 19 19 21 22 23 25 27 28 29 29 27 25 26 26 26 27 27 36 42 35 29 28 28 29 29 29 29 28 28 29 29 31 32 34 33
3 2 1 1 2 2 3 3 4 4 3 2 2 3 4 5 5 6 5 5 4 4 4 5 6 6 7 7 8 8 7 7 8 10 11 12 13 14 14 13 13 13 13 13 13 14 15 16 17 17 18 18 19 20 21 22 23 24 26 26 27 27 27 25 24 26 25 26 27 26 35 44 34 24 23 26 28 28 29 28 28 29 30 32 33 35 35 34
2 1 1 1 2 4 4 4 5 4 3 2 0 1 2 2 3 3 3 3 3 4 5 5 6 7 7 7 8 8 7 8 10 11 12 12 12 13 13 12 12 11 12 13 13 14 15 15 16 17 17 18 18 19 20 22 23 24 24 24 24 25 27 26 24 25 24 24 25 24 32 41 34 22 21 25 26 27 29 28 27 28 29 31 32 33 33 31
3 3 3 3 4 5 5 5 5 5 4 3 1 1 0 1 2 2 3 3 4 4 5 6 6 7 7 8 9 8 8 10 12 12 12 12 11 11 12 12 11 11 12 12 13 14 14 15 15 16 16 16 17 18 19 21 23 22 22 23 24 25 27 26 23 22 22 22 24 25 32 38 33 24 20 23 24 27 29 28 27 28 29 30 31 32 32 31
4 5 5 4 5 4 4 5 4 4 4 4 3 2 2 2 3 4 4 4 5 6 6 7 8 8 8 8 8 8 10 12 13 12 12 11 11 11 12 12 12 12 12 13 13 14 14 14 15 15 15 16 17 17 18 20 21 20 20 23 24 25 27 26 23 20 20 23 25 27 33 36 31 24 20 21 25 28 30 29 28 29 30 31 32 33 34 34
6 6 5 4 5 4 4 4 3 3 4 5 5 4 4 4 4 5 5 5 7 8 8 8 8 8 7 8 8 9 11 13 13 12 11 11 11 12 11 11 12 13 13 13 13 13 13 14 15 15 16 16 16 17 18 20 21 21 21 24 25 24 25 25 22 20 21 24 27 28 32 32 29 25 21 21 26 28 28 28 28 27 28 28 29 30 31 33
5 5 5 3 4 4 4 4 4 4 5 5 6 6 7 7 7 6 6 7 9 10 9 9 9 9 9 9 10 11 11 12 12 12 11 11 11 11 10 11 11 11 12 12 12 13 13 15 16 16 15 13 15 18 20 21 22 22 22 23 24 25 25 21 20 21 23 26 27 27 30 32 29 26 22 21 24 25 25 26 26 25 25 25 25 26 25 27
4 4 2 1 2 2 3 4 5 5 6 6 6 7 8 9 9 9 8 10 11 11 11 10 11 12 11 11 11 11 11 11 11 11 11 11 11 10 10 10 11 11 11 12 13 13 13 16 15 14 13 12 15 18 19 20 21 21 21 22 23 26 24 20 20 23 24 26 28 27 30 32 30 28 24 20 20 22 23 25 25 23 23 23 23 23 23 23
3 2 0 1 2 3 4 5 5 5 6 6 7 7 8 10 11 10 11 12 13 13 13 13 13 13 12 11 11 11 10 10 10 10 11 11 10 10 10 10 11 11 11 12 14 13 15 16 12 11 13 14 15 17 18 19 19 20 21 22 24 25 24 22 22 23 22 25 29 30 32 33 30 29 25 18 18 20 23 25 24 22 21 21 22 21 21 21
2 1 1 2 3 4 5 7 6 6 7 8 8 8 10 11 12 13 14 14 13 14 15 14 14 13 12 11 10 10 10 10 10 10 11 11 11 11 10 10 11 11 11 12 13 14 16 15 10 11 14 14 15 17 18 18 19 20 20 23 24 24 24 23 22 22 24 27 32 33 34 34 32 29 24 19 19 19 20 22 22 22 21 19 21 20 20 19
2 1 2 2 3 5 6 8 8 8 8 9 9 9 11 12 14 15 16 17 16 15 15 14 13 11 10 9 9 10 10 10 10 10 10 10 10 11 11 11 11 11 12 12 13 15 16 14 12 14 15 15 17 17 18 19 20 20 21 24 25 24 23 24 24 24 26 30 33 35 35 37 34 29 25 21 19 18 17 20 22 23 21 19 20 20 18 18
3 2 2 3 4 5 7 8 9 9 9 10 10 10 12 13 14 16 17 20 18 14 12 10 9 8 8 9 9 9 9 10 11 11 9 10 10 10 11 11 11 11 11 11 13 15 15 14 15 15 14 16 17 18 18 19 20 22 22 24 25 23 22 25 26 26 29 30 31 32 30 34 36 31 28 24 20 19 18 20 22 21 20 18 18 18 17 17
5 4 3 4 5 6 8 9 9 9 10 10 10 11 12 13 15 16 18 20 17 11 7 6 6 7 7 8 9 9 10 11 11 10 10 11 10 10 11 12 12 12 12 12 15 17 15 13 14 15 15 17 18 19 19 18 22 24 24 23 22 21 21 24 24 25 28 25 27 28 17 22 37 36 31 28 24 22 22 22 22 20 19 18 19 19 18 18
6 6 5 4 5 7 9 10 10 10 10 10 10 11 11 13 14 15 18 18 14 7 4 3 5 6 6 8 8 9 10 10 10 10 10 11 10 11 12 12 12 13 13 15 16 17 14 12 15 16 17 19 20 21 19 18 21 24 25 23 21 22 22 23 23 22 21 19 26 30 16 20 41 42 33 30 28 26 27 25 21 20 18 17 19 21 19 19
8 7 6 6 7 8 10 11 11 12 11 10 11 11 11 12 13 15 15 12 8 4 3 5 6 6 7 8 9 10 10 10 10 10 10 10 11 12 13 13 13 14 15 16 17 17 16 17 18 19 21 22 23 23 20 18 20 24 27 25 24 26 23 24 25 22 24 27 31 37 28 21 33 40 34 31 32 32 31 27 24 24 21 18 20 22 21 21
9 8 8 8 9 10 11 12 12 13 12 11 12 12 12 12 13 14 10 5 4 4 4 6 7 7 8 9 10 11 11 12 12 10 10 12 13 13 14 14 14 16 17 18 21 20 20 22 22 23 24 25 24 23 22 22 23 26 28 28 28 27 25 26 26 25 28 26 27 38 30 14 22 35 32 29 32 35 35 32 31 29 25 20 21 22 23 23
10 10 10 11 11 12 13 13 13 13 13 12 12 12 12 12 12 12 6 1 3 5 4 6 7 7 8 10 12 12 13 13 12 12 13 14 14 14 15 16 16 19 19 20 24 23 22 24 24 25 26 25 25 25 25 25 25 27 28 27 28 27 27 28 26 28 25 14 23 41 29 12 16 22 22 27 32 37 39 35 30 27 26 24 22 22 23 24
12 13 13 13 14 14 15 14 14 13 13 13 13 12 13 12 11 8 3 2 5 7 7 7 7 9 11 13 13 13 14 14 14 14 14 14 15 15 16 17 18 19 20 22 25 24 23 25 25 26 26 25 26 26 27 27 27 29 28 28 28 26 27 27 24 23 14 8 24 35 26 17 11 5 14 30 34 36 37 34 29 26 25 25 23 21 23 24
15 15 16 16 16 15 15 14 14 13 13 13 13 12 12 11 10 4 1 5 8 7 6 7 9 12 15 16 16 14 15 15 15 15 15 16 16 16 16 16 17 20 23 25 26 25 25 25 27 28 27 26 26 27 27 28 28 29 28 27 24 19 17 16 13 9 3 7 19 20 15 16 14 13 28 36 33 30 31 33 33 30 28 27 25 23 23 24
15 15 16 16 15 14 14 13 14 13 13 13 12 12 11 9 7 4 4 8 7 5 7 10 14 16 17 19 18 17 16 16 15 15 16 16 16 16 16 16 17 19 21 25 27 28 29 27 25 26 27 26 24 25 25 25 26 26 28 25 14 7 7 5 3 2 5 11 18 16 12 12 22 33 39 30 23 23 26 31 33 33 34 34 33 31 29 28
12 13 13 13 13 12 12 13 13 13 13 13 11 11 9 6 4 5 7 9 7 9 13 16 18 19 19 20 19 16 16 15 14 13 14 16 17 18 18 19 20 18 20 25 28 27 25 24 23 23 25 23 22 23 22 22 22 23 24 19 8 1 2 4 4 3 7 13 18 16 10 11 22 26 18 15 19 21 25 28 30 35 37 36 36 34 30 26
10 10 10 10 11 11 12 12 13 13 13 12 10 9 8 6 5 8 10 10 10 14 16 18 20 20 19 17 15 13 12 13 13 13 16 18 19 21 22 22 21 19 19 22 21 17 16 19 21 21 20 20 23 23 22 23 24 25 23 18 15 13 8 5 5 4 6 12 17 13 5 8 16 15 11 17 25 26 26 26 29 33 32 31 30 26 24 23
8 8 9 9 10 11 12 12 12 12 11 10 10 9 8 7 7 10 11 12 13 16 17 19 20 19 17 13 10 10 12 14 16 19 20 20 20 23 23 20 16 16 16 15 15 15 17 21 20 19 19 21 24 24 25 25 22 22 23 18 20 23 18 11 12 14 9 7 13 15 15 21 28 28 24 22 22 21 21 22 24 24 23 22 20 20 23 23
7 8 8 9 10 11 11 11 10 9 9 9 9 10 10 9 9 12 13 13 15 17 19 19 18 16 15 12 10 13 17 18 20 21 21 20 22 21 17 16 16 17 16 15 16 14 17 26 27 25 26 27 27 25 25 24 20 19 21 20 22 24 21 15 14 16 8 3 10 16 22 32 32 25 19 15 16 19 17 20 23 22 22 22 22 23 24 22
8 8 9 10 10 11 10 10 9 8 8 9 9 10 10 10 11 12 12 14 16 17 19 20 16 14 14 14 16 19 21 20 19 21 22 22 20 15 14 18 19 18 17 17 17 14 17 31 40 35 29 27 26 24 24 25 25 25 25 26 26 22 20 14 7 6 3 3 8 12 20 28 20 15 21 22 22 21 17 19 22 23 23 23 25 25 22 21
8 9 10 11 11 10 10 9 9 9 9 9 10 10 10 10 10 10 12 14 16 17 18 16 14 13 15 18 20 21 21 20 20 21 23 21 15 13 18 20 17 17 20 19 19 20 20 28 40 40 31 29 28 25 24 25 26 28 30 31 27 19 16 13 6 4 3 4 5 7 16 19 11 14 25 26 23 19 18 19 21 24 25 26 28 26 22 19
9 10 11 10 10 9 9 9 9 9 9 9 9 8 8 9 9 11 13 14 15 17 16 15 14 15 16 19 21 20 20 21 21 21 21 17 14 17 18 16 16 19 23 23 22 23 21 18 29 40 37 35 34 29 27 25 23 25 28 31 30 26 22 18 13 9 5 4 6 7 10 9 7 14 18 18 19 19 18 20 21 24 25 26 27 24 20 18
10 10 10 9 9 9 9 9 9 9 9 8 7 6 7 9 10 11 12 13 15 15 15 16 16 16 17 18 18 19 21 21 21 22 19 17 17 17 14 15 21 25 25 24 22 23 22 16 24 37 39 38 39 35 32 30 27 27 28 31 31 28 24 20 20 22 16 7 3 5 6 5 8 14 14 14 18 19 21 22 20 19 19 19 19 18 18 17
10 10 9 9 9 9 9 8 8 7 6 6 6 6 7 9 9 9 11 12 13 14 14 14 14 15 16 16 17 19 21 21 22 20 17 15 16 15 16 21 26 26 25 26 25 23 21 19 26 36 40 40 41 38 37 36 33 30 29 29 29 27 24 15 13 20 20 10 5 5 4 5 11 16 15 17 20 21 23 22 19 19 19 19 20 20 21 21
10 9 9 8 8 7 7 6 5 5 4 3 4 5 7 8 8 9 10 11 12 13 13 12 13 14 15 16 17 17 20 24 23 16 13 15 17 18 21 24 24 24 26 28 27 25 25 24 28 33 36 38 39 39 37 30 23 22 22 24 24 24 23 15 9 14 17 17 17 11 4 7 17 19 17 17 18 20 22 23 23 24 25 26 28 29 30 31
8 7 6 5 4 4 3 3 2 2 2 2 4 5 6 7 8 9 10 11 11 11 11 13 15 15 14 15 15 17 22 24 18 13 14 19 21 21 21 22 23 25 27 28 27 27 26 23 23 29 34 39 41 35 26 16 14 20 24 23 21 19 20 19 20 22 21 23 23 11 5 10 16 17 16 17 19 22 25 28 30 31 32 34 35 36 37 38
5 4 3 2 3 2 1 1 1 1 2 3 4 5 6 8 9 10 10 11 11 10 12 15 14 13 14 15 17 20 22 20 17 18 21 23 24 22 22 23 26 26 26 25 24 24 23 20 20 23 24 28 32 24 18 21 29 32 28 21 19 23 25 25 27 25 20 22 24 14 8 12 12 13 17 21 24 28 31 33 35 37 39 40 40 41 41 41
3 2 2 2 3 1 1 1 2 3 3 3 4 5 7 8 9 10 11 11 11 12 14 14 12 14 17 20 21 22 21 18 20 23 25 25 26 25 25 27 28 27 23 19 16 17 20 23 23 18 11 12 16 15 20 33 41 39 34 31 31 32 29 24 23 20 13 17 24 17 12 18 21 24 28 31 34 37 38 39 40 40 40 40 40 41 40 39
2 2 2 3 3 2 2 3 4 5 5 4 5 6 7 8 9 10 11 11 12 14 14 12 14 18 21 23 24 23 21 20 21 23 25 26 28 28 28 28 28 25 18 14 14 14 18 21 21 20 20 21 23 25 30 34 37 38 38 38 38 35 30 25 21 16 14 18 23 20 17 22 27 31 33 34 34 35 35 37 37 37 36 35 34 33 33 33
2 2 3 3 3 3 4 5 5 6 6 6 6 7 8 9 10 11 12 13 14 15 13 14 19 22 22 23 24 23 23 23 23 23 25 27 30 29 27 28 28 22 16 17 20 19 19 21 19 19 23 26 27 29 28 26 28 30 30 31 33 32 32 30 22 16 17 16 16 20 21 20 22 26 28 29 30 30 31 33 33 34 34 33 32 31 29 28
2 3 3 3 3 4 5 6 6 7 8 8 8 8 9 10 12 13 14 15 16 16 16 18 20 21 21 22 23 24 26 27 27 25 26 29 31 30 30 29 23 19 20 23 22 20 18 17 16 20 26 29 27 24 22 23 23 24 25 27 28 29 29 27 21 19 19 15 14 22 25 21 21 25 26 28 31 32 32 33 33 34 34 33 33 32 30 29
3 3 4 4 5 5 6 7 8 9 9 9 9 9 10 12 14 16 17 17 17 17 19 20 20 20 20 21 22 23 25 27 29 29 29 29 30 30 30 27 21 20 24 24 20 19 19 18 19 25 34 38 32 26 25 26 24 23 23 22 21 22 20 19 18 20 22 22 21 23 24 21 22 26 28 29 31 33 34 34 34 35 35 34 33 33 33 33
3 4 5 5 6 7 8 8 9 9 9 9 9 11 13 14 15 17 18 19 19 19 20 21 21 20 20 21 22 22 22 23 24 26 27 28 29 28 24 22 23 24 24 22 20 21 23 24 25 30 37 40 33 29 28 27 25 23 21 16 14 16 16 17 20 23 26 27 25 24 25 24 25 28 30 30 31 35 38 38 36 37 37 37 35 33 33 35
5 5 5 7 8 8 8 9 9 9 9 9 10 12 15 17 17 17 18 18 19 20 21 22 22 21 21 22 22 21 21 20 20 21 22 23 24 22 20 20 23 23 23 24 23 24 26 28 29 29 32 35 33 29 27 28 26 21 16 14 13 15 18 19 22 26 26 25 25 25 26 27 30 34 35 34 33 36 40 42 41 40 40 40 38 35 34 37
6 7 8 8 9 8 8 9 9 9 10 11 12 14 16 18 18 16 15 16 18 19 20 22 22 22 22 21 20 20 20 19 19 19 18 16 17 18 19 18 17 20 23 23 23 25 26 27 26 23 24 30 30 27 28 28 20 12 10 13 16 16 18 21 26 28 23 20 21 22 24 29 33 37 38 37 36 37 42 44 44 42 42 41 39 36 36 41
Wind_Direction
143 147 150 150 149 143 137 131 118 93 57 35 28 55 95 84 75 79 88 96 107 136 164 194 214 220 224 227 228 237 243 244 248 247 247 255 260 259 257 255 256 260 267 273 273 270 271 268 269 270 269 271 269 268 268 263 259 259 257 257 259 262 266 270 275 282 288 289 288 287 283 278 276 274 272 271 269 270 270 270 273 277 283 288 289 287 282 275
145 150 157 162 165 165 159 152 144 22 1 355 1 13 303 264 252 252 259 246 228 200 184 198 210 209 212 219 224 228 232 240 251 249 248 256 262 262 261 257 257 267 275 278 276 275 274 272 273 275 276 275 270 268 269 266 260 257 257 259 263 267 270 273 276 281 284 284 285 285 282 276 273 274 273 273 271 272 271 270 275 280 286 289 287 282 277 273
151 157 169 183 189 193 191 195 249 313 326 327 326 285 255 251 247 250 254 252 247 241 229 222 225 227 227 225 226 230 236 246 252 252 253 257 260 260 262 265 267 272 275 276 275 274 274 274 275 277 278 274 268 266 266 268 266 262 260 263 269 273 274 277 277 277 276 279 284 284 282 278 276 276 274 274 274 272 270 272 279 283 285 285 282 279 277 274
167 174 188 205 216 223 232 249 278 298 303 295 266 245 242 241 243 247 250 252 250 248 248 244 240 242 245 241 238 242 248 256 258 257 258 259 260 261 263 267 270 273 275 276 275 273 273 274 275 276 278 275 270 266 266 268 268 265 264 267 274 276 275 277 275 274 274 277 281 281 281 279 278 278 276 278 277 272 271 276 282 284 283 281 279 277 275 273
198 210 213 219 228 240 252 265 278 284 281 271 252 240 237 239 240 243 246 248 249 248 249 249 246 248 254 255 254 255 258 266 267 262 260 259 260 262 264 269 272 274 276 276 274 272 272 273 275 276 277 276 273 269 269 269 267 266 268 271 274 275 276 278 276 273 274 277 279 281 281 280 279 279 280 281 277 274 277 281 283 283 281 279 276 274 273 272
226 223 214 218 229 240 253 261 266 266 263 262 259 250 241 238 235 236 239 241 246 246 248 251 252 254 261 264 264 264 262 266 270 266 263 261 261 263 267 272 274 276 277 275 274 272 272 273 274 275 275 276 274 273 272 271 267 267 271 272 272 275 278 280 279 276 278 281 282 284 283 283 283 283 283 280 275 277 283 285 285 283 279 276 274 274 274 273
213 190 201 236 246 250 253 251 252 257 260 261 263 261 253 247 245 247 249 250 251 254 261 265 265 266 265 266 266 265 263 263 268 271 271 269 269 270 272 276 279 280 278 276 274 272 271 271 271 272 273 274 275 275 273 270 268 268 272 275 274 275 277 280 281 280 283 284 286 286 284 285 286 285 282 278 278 283 288 288 286 283 278 275 274 273 273 273
181 183 229 259 266 262 254 251 252 257 260 262 263 263 260 258 263 268 266 265 264 265 271 273 274 272 267 266 266 264 264 266 270 275 278 276 274 275 277 280 282 281 279 277 275 272 271 271 271 272 273 275 276 276 273 270 268 268 273 276 276 277 277 279 280 282 284 285 286 285 284 286 287 286 282 280 285 290 291 290 288 284 280 276 275 274 273 271
172 206 248 264 264 263 267 272 273 271 268 264 261 263 262 260 264 269 271 272 271 273 275 276 276 274 270 268 267 265 268 273 276 280 283 281 278 279 282 284 283 283 281 279 276 274 273 273 274 275 276 277 277 277 275 272 271 271 274 276 277 279 279 280 281 283 284 285 286 285 286 287 287 285 283 286 296 296 292 289 285 281 278 277 276 275 273 271
181 225 256 262 260 260 270 284 294 296 287 273 263 261 262 263 265 267 271 272 273 275 275 274 271 268 267 266 267 269 273 279 281 282 283 283 285 286 288 287 284 283 281 279 279 277 276 277 278 279 279 278 278 278 276 275 274 276 277 277 279 280 281 281 282 283 284 285 286 287 287 286 285 282 285 299 302 294 289 285 282 280 280 280 277 273 271 270
196 232 254 258 262 266 274 291 302 303 300 289 274 264 263 265 267 268 269 269 269 269 268 267 264 263 265 269 272 272 277 282 281 281 283 287 290 290 289 287 285 284 281 280 281 282 282 282 282 282 281 280 281 280 279 277 277 279 279 280 280 281 281 282 284 284 285 287 287 288 287 285 281 281 291 306 298 288 287 285 283 282 281 279 276 274 272 271
214 231 248 260 276 286 296 305 305 305 301 293 283 272 266 264 265 267 265 264 262 261 262 262 261 264 269 273 275 276 279 280 279 282 288 291 290 289 288 287 287 286 285 283 283 284 285 285 284 283 281 281 282 281 281 281 280 281 281 283 284 283 284 285 287 288 289 290 290 292 290 285 282 286 298 300 290 288 287 285 285 283 280 277 275 274 273 272
217 220 248 287 297 308 322 326 325 323 315 301 287 273 265 260 257 256 256 256 256 258 261 260 261 262 266 270 273 278 278 276 280 285 288 291 289 288 288 287 287 286 286 285 284 285 284 285 285 283 282 282 282 282 282 283 283 283 283 285 288 289 288 290 292 292 293 293 293 296 291 287 290 299 303 297 292 291 287 286 285 282 279 276 274 273 272 272
202 200 267 308 325 2 10 10 14 9 1 338 297 269 261 255 247 244 245 246 249 258 259 259 259 259 261 268 276 280 276 275 283 288 289 290 289 290 289 288 289 288 288 288 287 287 286 285 284 284 283 283 283 283 283 284 284 286 287 288 290 291 292 295 296 294 295 294 295 295 288 290 300 314 311 302 298 295 290 287 284 281 279 277 276 275 274 272
174 141 99 75 52 46 40 40 40 33 32 29 348 259 250 246 242 240 242 247 257 265 264 263 263 264 266 272 283 283 272 278 288 291 293 292 291 292 291 292 293 292 292 292 291 290 288 286 285 284 283 284 285 283 283 285 286 287 287 289 290 290 293 297 297 295 297 296 294 293 287 291 306 322 314 303 300 296 293 291 289 286 284 281 280 279 276 273
142 117 105 86 68 59 51 51 47 44 44 43 50 57 348 284 277 269 273 276 279 282 277 271 270 274 277 283 288 278 269 282 290 292 295 294 292 293 294 297 298 296 295 294 293 291 290 288 285 283 284 286 284 283 285 285 285 287 287 288 291 292 295 300 302 302 302 297 294 292 287 294 309 322 315 306 304 302 299 299 296 291 286 282 280 278 275 272
130 115 102 85 71 59 47 49 46 44 41 33 27 17 359 328 308 297 294 292 298 303 295 284 280 282 288 289 283 271 273 286 290 293 295 293 295 297 298 300 300 300 297 295 293 292 292 289 286 286 285 284 284 285 285 285 288 291 290 290 292 294 295 298 305 309 305 299 297 294 291 298 312 321 320 316 312 308 304 301 296 291 287 284 281 278 277 274
124 109 99 86 71 55 39 33 23 25 28 20 8 353 344 334 324 311 301 300 305 305 298 291 287 287 291 287 275 271 281 287 288 292 294 294 298 298 298 298 297 297 295 295 294 293 292 291 289 287 286 288 289 283 278 285 294 294 292 292 293 296 295 298 309 311 305 301 299 296 297 305 314 319 323 324 317 309 301 297 296 296 295 293 289 286 283 279
122 108 98 83 69 50 26 15 10 9 9 4 352 342 335 331 329 320 309 307 309 306 298 293 289 287 286 282 277 278 283 285 287 291 294 297 299 298 298 296 295 295 295 296 295 295 295 291 291 292 296 296 288 281 280 286 291 291 292 291 293 297 300 308 315 309 303 300 298 298 301 307 313 318 325 328 317 304 298 299 303 306 305 302 299 296 293 288
129 112 97 70 37 9 347 348 357 358 355 348 336 332 329 326 324 317 311 310 311 309 302 296 291 286 282 281 280 281 284 285 289 294 298 300 300 299 299 298 299 299 300 298 295 298 296 292 298 303 301 292 283 283 286 287 288 290 292 292 293 295 302 317 314 304 302 298 299 303 304 305 309 315 324 328 314 301 301 305 309 311 309 306 304 303 301 296
152 139 111 326 329 328 319 321 332 337 335 329 325 324 323 319 315 311 310 311 310 308 304 298 290 285 281 279 278 282 287 287 290 297 300 300 299 300 300 300 302 301 302 299 297 301 296 296 309 308 295 290 288 287 288 287 289 291 291 293 295 294 302 314 308 301 301 297 299 304 304 304 307 313 320 324 312 304 305 309 313 314 310 309 309 309 307 304
176 196 285 315 321 320 314 313 317 314 312 318 320 319 318 314 309 309 310 310 308 306 302 295 288 283 278 275 278 286 290 291 295 300 299 296 297 300 301 300 300 301 303 300 300 301 298 304 314 302 295 295 292 290 291 290 290 292 292 291 293 297 304 306 303 301 301 298 300 303 302 303 308 313 317 319 311 306 304 308 315 315 310 310 310 311 310 308
202 237 286 305 320 323 318 315 314 310 307 310 312 311 312 309 307 310 311 310 309 307 298 290 285 279 274 276 281 288 293 297 300 300 295 290 292 296 297 298 298 302 303 301 301 297 299 309 307 297 297 295 292 293 293 292 293 292 290 288 292 300 302 297 298 300 299 299 300 302 300 300 308 313 313 317 313 304 299 302 311 312 308 310 311 311 309 304
232 254 268 290 319 325 323 321 317 312 308 307 307 306 307 305 305 309 312 311 312 311 297 284 280 275 274 282 287 292 296 298 298 296 291 289 292 293 295 299 300 302 302 301 297 294 300 305 297 296 296 292 293 294 293 294 294 292 290 289 293 300 296 291 295 297 297 299 300 304 300 297 306 313 313 319 317 305 300 302 310 310 303 307 313 311 305 298
246 250 256 285 314 323 326 325 319 317 318 314 310 306 304 303 304 310 315 312 313 315 301 282 282 281 279 285 291 294 295 295 293 289 288 291 292 294 298 299 300 302 301 300 297 296 302 302 296 299 297 294 294 293 295 294 293 292 292 291 292 294 291 290 294 296 299 300 300 308 310 294 300 308 314 319 316 308 310 313 314 308 298 302 313 312 301 295
249 248 255 282 306 318 322 321 319 322 324 321 317 310 304 304 307 315 318 312 308 305 297 302 298 287 287 291 294 297 299 297 292 289 288 291 291 294 299 298 297 299 298 301 300 298 302 301 298 300 299 297 294 294 299 295 290 290 290 292 291 289 290 292 293 295 296 293 295 300 294 282 293 302 312 317 315 313 318 322 317 309 301 296 307 312 301 295
250 250 260 281 296 307 314 315 317 320 320 317 317 313 307 307 311 322 324 316 309 289 269 303 300 289 294 295 295 299 302 300 296 294 291 292 296 297 297 297 297 296 298 300 296 297 303 301 299 300 297 294 293 298 301 293 285 284 287 291 289 289 292 290 291 291 288 289 292 290 282 273 284 296 310 314 311 315 321 324 320 317 314 298 300 310 303 295
253 254 266 280 289 299 306 309 310 313 313 310 311 310 309 311 316 326 332 333 325 298 278 300 300 294 298 299 301 300 299 301 299 297 298 299 301 299 297 299 299 298 300 295 290 296 302 300 299 297 294 294 296 299 296 287 281 281 286 288 287 290 289 288 290 288 289 295 292 286 280 264 272 286 304 310 307 316 323 325 323 323 322 307 297 302 302 296
258 262 271 278 285 292 298 302 304 307 308 307 306 306 307 311 316 324 328 307 313 306 290 304 305 306 312 310 307 302 298 299 296 296 300 300 301 300 298 299 299 299 300 295 292 299 302 299 298 295 293 296 297 296 292 287 282 282 285 285 285 287 286 288 289 286 290 288 279 282 277 255 273 282 297 306 307 315 320 324 327 324 320 314 304 298 297 294
264 268 271 275 282 287 291 296 299 302 305 304 303 303 304 306 314 327 329 269 312 312 297 301 307 313 317 314 309 304 300 298 296 298 300 300 302 301 300 300 299 299 300 298 298 301 300 297 297 295 296 298 296 293 290 288 285 283 284 283 283 285 287 288 284 283 293 266 270 282 274 256 269 284 295 304 309 314 319 322 324 319 311 307 301 293 285 281
268 269 271 274 278 282 287 291 294 299 302 302 301 299 299 302 306 309 230 299 318 318 305 309 314 314 317 316 313 307 301 298 298 299 299 300 301 302 303 303 302 302 303 302 302 303 301 299 299 298 298 298 295 291 289 287 286 284 281 280 283 290 291 287 277 268 255 264 276 285 278 250 232 263 293 301 309 316 318 315 311 308 305 300 293 287 279 272
271 270 270 273 276 280 284 287 291 297 298 298 298 296 297 302 295 261 273 311 320 319 320 318 314 315 316 315 314 310 304 301 299 299 300 302 303 304 305 304 305 304 301 302 304 303 300 299 300 301 301 301 297 291 291 290 288 285 278 274 278 305 312 284 257 226 217 264 279 284 290 249 244 275 296 307 320 320 309 302 302 302 301 298 293 289 285 275
272 270 270 271 275 278 281 285 289 293 294 294 293 292 292 294 284 278 298 311 305 307 316 315 313 315 315 314 315 311 306 306 307 306 307 307 308 308 307 307 307 299 292 298 302 301 300 300 301 302 301 302 301 297 295 293 292 289 278 267 249 192 331 273 260 285 267 273 284 288 289 267 270 289 318 343 336 315 296 292 294 295 294 293 293 291 286 278
273 272 270 272 277 279 283 286 287 289 290 288 287 287 279 270 283 300 310 310 303 308 314 313 314 315 316 320 321 317 319 320 319 317 315 313 312 311 311 313 313 307 300 299 299 297 294 296 302 303 300 301 302 299 295 292 290 288 279 265 252 245 243 251 256 263 280 292 297 294 264 263 286 300 320 321 310 297 291 291 288 289 290 290 292 290 287 282
274 274 273 276 280 283 286 287 286 286 284 283 283 278 269 271 291 305 311 311 309 312 313 314 316 317 321 330 331 328 331 325 318 317 316 317 316 315 318 322 323 320 314 304 303 304 293 294 304 308 303 301 298 294 292 290 287 283 277 262 257 260 257 258 265 265 277 310 293 275 262 270 284 291 292 294 293 290 290 286 282 284 286 287 286 286 290 285
277 279 281 283 285 287 288 287 285 282 279 281 280 278 278 284 296 304 307 309 310 314 316 319 321 321 326 334 331 328 326 322 318 317 319 322 321 321 328 335 333 327 321 309 304 307 299 299 306 307 304 302 297 293 290 284 278 275 274 268 270 275 272 263 269 274 276 291 271 263 271 279 287 294 289 277 285 295 288 275 279 287 288 289 288 288 289 281
283 285 287 288 289 289 288 284 281 278 279 282 281 285 290 293 298 303 304 307 310 315 319 324 326 324 326 325 323 326 325 322 322 320 322 324 322 327 335 334 331 330 331 322 307 304 302 301 304 307 307 306 303 299 293 285 278 271 270 277 282 282 275 262 260 289 270 249 265 252 267 282 292 298 293 291 297 301 293 279 283 289 291 294 294 292 286 279
287 287 288 288 288 288 286 282 281 282 284 286 288 292 295 297 302 304 305 309 311 315 319 322 322 321 321 321 323 327 325 322 323 323 324 324 324 329 330 329 333 337 339 334 318 311 307 301 303 306 307 308 307 303 295 291 288 282 279 282 281 275 272 261 243 278 270 256 275 255 268 284 300 300 303 310 313 309 298 286 283 286 287 289 290 287 280 276
286 287 288 288 288 288 286 284 284 286 287 290 296 296 294 296 301 304 309 312 313 315 317 318 318 318 320 322 324 326 325 323 325 326 324 322 322 327 330 334 339 336 332 329 322 316 312 297 295 301 306 308 307 303 300 300 298 293 287 281 275 269 268 264 256 263 264 260 281 282 277 284 299 304 312 320 318 314 305 295 290 288 286 284 284 282 279 278
288 290 290 291 293 292 289 287 286 289 290 292 295 291 289 294 302 309 312 312 312 313 316 318 320 320 322 325 325 325 325 324 327 328 323 320 325 328 333 335 330 327 323 321 323 321 313 289 281 297 304 302 302 305 306 306 303 298 290 283 280 276 273 271 268 268 266 258 264 282 281 274 282 295 309 318 316 313 307 303 299 293 289 288 288 288 289 289
293 294 294 294 296 292 289 290 290 291 292 291 291 287 291 299 307 311 308 307 311 313 316 320 323 326 326 327 328 329 327 325 329 332 325 324 332 331 325 324 323 323 321 320 324 323 314 293 282 293 299 299 303 308 306 305 305 302 293 286 287 286 282 278 272 272 270 262 255 268 281 281 276 281 294 305 306 304 303 305 304 301 298 296 297 299 300 299
296 298 299 298 297 292 289 289 289 291 290 288 293 295 301 305 306 306 304 308 315 317 321 327 330 331 330 328 332 335 330 327 330 335 328 323 328 324 319 319 319 320 321 321 322 320 312 300 287 289 296 300 303 305 305 308 313 313 309 304 305 301 289 277 274 288 287 284 282 279 271 267 266 268 277 288 297 304 305 304 304 305 305 302 302 303 304 304
304 307 309 307 304 301 296 285 276 287 295 297 303 305 305 303 303 307 312 319 324 325 329 333 334 335 335 333 336 336 333 329 327 329 323 319 324 325 322 321 320 322 323 320 319 316 311 303 292 295 301 302 302 305 311 316 322 325 325 320 314 309 301 294 291 294 289 283 285 283 266 268 260 255 269 285 298 307 310 307 304 305 307 308 307 305 305 305
315 317 320 332 334 321 304 293 275 301 316 310 309 305 303 305 310 315 322 328 332 335 335 335 336 337 335 333 331 332 334 330 321 321 322 322 328 331 327 325 323 323 322 317 315 312 304 296 299 307 310 307 308 317 327 322 320 325 327 320 306 302 305 303 298 293 281 277 284 280 276 285 275 269 281 290 294 299 306 311 310 309 309 310 309 308 307 305
317 308 299 323 328 304 289 331 308 307 319 313 306 302 301 310 319 325 332 336 337 339 339 337 336 337 335 332 330 332 336 330 321 322 325 328 330 330 328 327 325 323 321 316 316 310 298 296 301 302 298 300 308 317 322 318 317 316 314 311 310 311 313 312 304 293 278 286 291 286 291 298 289 282 284 286 289 293 299 305 309 311 311 311 311 310 309 307
305 282 279 310 311 257 276 316 305 303 315 312 309 308 309 320 330 334 338 338 336 339 342 340 337 338 337 333 331 334 336 332 324 322 326 328 328 328 329 326 323 323 320 316 319 312 299 301 303 295 287 290 298 303 306 309 309 308 306 306 309 312 313 316 313 295 285 298 294 286 302 311 298 292 293 296 300 305 308 310 312 315 316 317 318 315 312 311
294 281 285 310 307 266 287 308 305 305 315 320 319 320 325 333 337 336 337 338 337 340 344 341 338 339 338 334 333 336 335 330 326 325 328 327 324 325 326 323 322 323 317 316 320 314 307 309 313 306 296 294 300 304 306 311 311 307 304 303 305 306 305 308 313 308 305 307 293 291 310 323 314 309 313 318 321 325 329 328 326 325 324 324 324 321 317 313
301 297 298 309 306 292 297 309 313 316 322 328 328 329 337 342 340 338 339 340 341 341 341 340 339 341 340 337 337 336 332 329 328 329 330 327 323 324 324 324 326 324 320 324 328 326 325 328 329 319 308 305 311 315 322 329 321 304 298 298 298 299 301 303 309 318 321 317 302 303 312 317 313 313 319 325 327 329 333 334 331 328 326 325 325 323 320 316
317 310 308 312 313 313 317 323 327 329 332 334 334 335 342 348 347 344 342 343 342 340 338 339 342 343 340 337 335 332 331 330 329 329 329 326 322 323 325 326 328 328 328 335 341 339 339 339 335 326 315 312 317 324 330 331 320 302 296 297 298 301 304 307 313 321 326 323 314 311 311 309 308 310 314 320 325 326 327 329 331 328 324 323 324 322 319 317
328 319 315 322 331 337 339 339 340 338 336 337 337 339 343 350 352 346 341 340 340 340 340 340 342 342 337 334 331 328 328 328 326 323 322 321 320 323 325 324 325 328 332 336 337 337 338 334 330 326 317 313 320 329 331 332 324 307 295 292 305 316 316 320 326 328 329 327 323 316 312 308 307 308 310 314 319 324 324 325 329 328 324 323 322 319 316 315
339 333 334 341 347 350 348 344 343 340 335 335 337 341 344 347 349 345 341 339 339 341 340 338 338 338 335 333 331 329 331 332 327 321 318 317 318 321 320 316 318 322 326 329 328 328 330 327 325 327 319 316 327 335 333 332 325 306 289 291 310 323 323 326 335 338 333 325 320 316 312 309 308 308 308 307 311 321 324 323 326 327 324 321 319 316 313 312
352 352 354 352 349 349 345 342 340 336 333 335 337 341 342 342 344 347 347 342 339 340 338 336 338 339 338 339 340 341 344 342 336 332 328 324 318 313 308 304 309 320 325 327 325 326 328 327 330 335 323 319 332 337 328 327 321 294 284 302 312 322 326 326 332 338 335 319 310 310 308 306 304 303 303 301 304 314 321 322 325 325 320 316 315 313 310 310